Weather History for KMBG - December, 2013

Change the Weather History Date:

Wednesday, December 25, 2013

  Actual Average Record
Temperature  
Mean Temperature 28 °F 16 °F  
Max Temperature 33 °F 26 °F 51 °F (1963)
Min Temperature 23 °F 6 °F -17 °F (1996)
Degree Days  
Heating Degree Days 37 49  
Month to date heating degree days 1389 1155  
Since 1 July heating degree days 3197 2921  
Cooling Degree Days 0 0  
Month to date cooling degree days 0 0  
Year to date cooling degree days 700 644  
Moisture  
Dew Point 25 °F    
Average Humidity 86    
Maximum Humidity 100    
Minimum Humidity 72    
Precipitation  
Precipitation 0.02 in 0.02 in 0.23 in (2009)
Month to date precipitation 0.54 0.31  
Year to date precipitation 23.46 17.74  
Snow  
Snow 0.00 in - - ()
Month to date snowfall 12.1  
Since 1 July snowfall 13.1  
Snow Depth -    
Sea Level Pressure  
Sea Level Pressure 30.13 in    
Wind  
Wind Speed 11 mph (NW)    
Max Wind Speed 24 mph    
Max Gust Speed 32 mph    
Visibility 8 miles    
Events Snow    
T = Trace of Precipitation, MM = Missing Value Source: NWS Daily Summary

Daily Weather History Graph

Daily Weather History Graph

Search for Another Location

Airport or City:

Trip Planner

Search our weather history database for the weather conditions in past years. The results will help you decide how hot, cold, wet, or windy it might be!

Date:

Astronomy

Dec. 25, 2013 Rise Set
Actual Time 8:20 AM CST 5:03 PM CST
Civil Twilight 7:46 AM CST 5:37 PM CST
Nautical Twilight 7:08 AM CST 6:15 PM CST
Astronomical Twilight 6:32 AM CST 6:51 PM CST
Moon 12:33 AM CST (12/25) 12:23 PM CST (12/25)
Length of Visible Light 9h 51m
Length of Day
8h 42m
Waning Gibbous, 48% of the Moon is Illuminated
Dec 25
Waning Gibbous
Jan 1
New
Jan 7
First Quarter
Jan 15
Full
Jan 23
Last Quarter

Hourly Weather History & Observations

Time (CST) Temp. Windchill Dew Point Humidity Pressure Visibility Wind Dir Wind Speed Gust Speed Precip Events Conditions
12:12 AM 33.8 °F 23.5 °F 28.4 °F 81% 30.02 in 1.5 mi WNW 16.1 mph - 0.01 in Snow Light Snow
12:25 AM 32.0 °F 24.2 °F 30.2 °F 93% 30.01 in 3.0 mi WNW 9.2 mph - 0.02 in Snow Light Snow
12:41 AM 32.0 °F 25.6 °F 30.2 °F 93% 30.00 in 10.0 mi WNW 6.9 mph - 0.02 in   Overcast
12:52 AM 30.9 °F 27.5 °F 30.0 °F 96% 30.08 in 10.0 mi WNW 3.5 mph - 0.02 in   Overcast
1:52 AM 25.0 °F - 24.1 °F 96% 30.07 in 10.0 mi Calm Calm - N/A   Scattered Clouds
2:52 AM 33.1 °F 22.2 °F 27.0 °F 78% 30.06 in 10.0 mi WNW 17.3 mph 23.0 mph N/A   Overcast
3:19 AM 32.0 °F 19.2 °F 26.6 °F 80% 30.02 in 2.0 mi NW 23.0 mph 29.9 mph 0.00 in Snow Light Snow
3:31 AM 32.0 °F 21.2 °F 28.4 °F 87% 30.03 in 4.0 mi NW 16.1 mph - 0.00 in Snow Light Snow
3:38 AM 32.0 °F 20.8 °F 28.4 °F 87% 30.04 in 5.0 mi NW 17.3 mph - 0.00 in Snow Light Snow
3:44 AM 32.0 °F 20.1 °F 28.4 °F 87% 30.04 in 2.5 mi NW 19.6 mph 25.3 mph 0.00 in Snow Light Snow
3:52 AM 32.0 °F 20.5 °F 30.0 °F 92% 30.11 in 2.5 mi NW 18.4 mph - 0.00 in Snow Light Snow
3:57 AM 32.0 °F 20.1 °F 30.2 °F 93% 30.05 in 3.0 mi NW 19.6 mph - 0.00 in Snow Light Snow
4:06 AM 32.0 °F 21.2 °F 28.4 °F 87% 30.05 in 9.0 mi NW 16.1 mph - 0.00 in Snow Light Snow
4:39 AM 32.0 °F 21.6 °F 28.4 °F 87% 30.06 in 10.0 mi NW 15.0 mph - 0.00 in   Overcast
4:52 AM 32.0 °F 22.5 °F 28.9 °F 88% 30.13 in 10.0 mi NW 12.7 mph - 0.00 in   Overcast
5:25 AM 30.2 °F 20.2 °F 28.4 °F 93% 30.08 in 10.0 mi NW 12.7 mph - N/A   Overcast
5:52 AM 32.0 °F 21.2 °F 27.0 °F 82% 30.17 in 10.0 mi NW 16.1 mph - N/A   Overcast
6:23 AM 30.2 °F 18.9 °F 26.6 °F 86% 30.11 in 10.0 mi NW 16.1 mph - N/A   Overcast
6:52 AM 30.0 °F 18.7 °F 26.1 °F 85% 30.19 in 10.0 mi NW 16.1 mph - 0.00 in   Overcast
7:07 AM 30.2 °F 17.4 °F 26.6 °F 86% 30.13 in 10.0 mi NW 20.7 mph 26.5 mph N/A   Overcast
7:52 AM 30.0 °F 17.9 °F 25.0 °F 82% 30.23 in 10.0 mi NW 18.4 mph - N/A   Overcast
8:35 AM 26.6 °F 14.3 °F 21.2 °F 80% 30.18 in 10.0 mi NNW 16.1 mph - N/A   Scattered Clouds
8:52 AM 25.0 °F 13.6 °F 19.9 °F 81% 30.26 in 10.0 mi NNW 12.7 mph - N/A   Clear
9:52 AM 28.0 °F 16.1 °F 23.0 °F 81% 30.28 in 10.0 mi NW 16.1 mph - N/A   Mostly Cloudy
10:52 AM 28.0 °F 15.3 °F 21.0 °F 75% 30.29 in 10.0 mi NW 18.4 mph - N/A   Partly Cloudy
11:52 AM 28.0 °F 16.5 °F 21.0 °F 75% 30.28 in 10.0 mi WNW 15.0 mph - N/A   Clear
12:18 PM 28.4 °F 18.0 °F 21.2 °F 74% 30.21 in 10.0 mi NW 12.7 mph - N/A   Mostly Cloudy
12:52 PM 28.0 °F 16.5 °F 21.9 °F 78% 30.27 in 10.0 mi WNW 15.0 mph - N/A   Overcast
1:52 PM 28.9 °F 19.2 °F 21.9 °F 75% 30.23 in 10.0 mi NW 11.5 mph - N/A   Scattered Clouds
2:52 PM 28.9 °F 20.4 °F 21.9 °F 75% 30.21 in 10.0 mi West 9.2 mph - N/A   Overcast
3:52 PM 30.9 °F 23.5 °F 23.0 °F 72% 30.19 in 10.0 mi West 8.1 mph - N/A   Overcast
4:52 PM 30.0 °F 23.2 °F 23.0 °F 75% 30.17 in 10.0 mi West 6.9 mph - N/A   Overcast
5:52 PM 28.0 °F 19.3 °F 21.9 °F 78% 30.16 in 10.0 mi West 9.2 mph - N/A   Overcast
6:52 PM 30.0 °F 22.4 °F 23.0 °F 75% 30.14 in 10.0 mi West 8.1 mph - N/A   Mostly Cloudy
7:52 PM 28.9 °F 21.9 °F 21.9 °F 75% 30.12 in 10.0 mi WNW 6.9 mph - N/A   Mostly Cloudy
8:52 PM 26.1 °F 19.4 °F 19.9 °F 78% 30.12 in 10.0 mi WNW 5.8 mph - N/A   Scattered Clouds
9:52 PM 26.1 °F 19.4 °F 19.9 °F 78% 30.09 in 10.0 mi North 5.8 mph - N/A   Mostly Cloudy
10:52 PM 25.0 °F 20.7 °F 19.0 °F 78% 30.07 in 10.0 mi South 3.5 mph - N/A   Overcast
11:52 PM 25.0 °F - 19.9 °F 81% 30.05 in 10.0 mi Calm Calm - N/A   Overcast